Simultaneous Nadir Overpasses (SNOs) Predictions

Prediction of SNOs between AQUA and NOAA-19 Satellite Orbit:

Table of predicted SNOs for the next 14.0 days since TLE Epoch: 1/9/2021
Index Date (AQUA) Time (AQUA) Lat,Lon (AQUA) SZA (AQUA ) Date (NOAA-19) Time (NOAA-19) Lat,Lon (NOAA-19) SZA (NOAA-19 ) Distance(km) Time Diff (sec)
1 01/10/2021 02:33:57 79.21, 116.48 102.19 01/10/2021 02:32:49 79.20, 116.33 102.22 3.17 68
2 01/10/2021 03:23:24 -79.24, -76.07 77.77 01/10/2021 03:23:44 -79.23, -76.13 77.78 1.50 20
3 01/12/2021 08:57:08 79.25, 20.48 101.90 01/12/2021 08:57:02 79.22, 20.49 101.88 3.27 6
4 01/14/2021 14:30:51 -79.23, 117.16 78.50 01/14/2021 14:30:11 -79.20, 117.15 78.51 3.06 40
5 01/14/2021 15:20:18 79.24, -75.30 101.52 01/14/2021 15:21:15 79.23, -75.38 101.50 2.51 57
6 01/16/2021 20:04:34 79.21,-146.13 101.07 01/16/2021 20:03:29 79.19,-146.17 101.09 1.80 65
7 01/16/2021 20:54:01 -79.22, 21.40 78.91 01/16/2021 20:54:23 -79.24, 21.50 78.92 2.48 22
8 01/19/2021 02:27:44 79.21, 118.06 100.63 01/19/2021 02:27:42 79.20, 117.92 100.63 3.21 2
9 01/21/2021 08:01:27 -79.19,-145.24 79.87 01/21/2021 08:00:50 -79.20,-145.25 79.85 1.30 37



Historial Predications of SNOs between AQUA and NOAA-19
